Location: LDNL
(36.4545°S, 141.6685°E)
Time: 07:26:58
(UTC+11:00)

STRAND 1 - Visible Passes

Search period start: 01 October 2022 23:00
Search period end: 12 October 2022 00:00
Orbit: 768 x 780 km, 98.4° (Epoch: 01 October)

Date Brightness Start Highest point End Pass type
(mag) Time Alt. Az. Time Alt. Az. Time Alt. Az.
02 Oct ? 20:57:54 10° NW 21:01:08 17° W 21:04:22 10° SW visible
03 Oct ? 20:21:57 10° NNW 20:26:40 36° W 20:31:26 10° SSW visible
05 Oct ? 20:54:09 10° NW 20:57:36 18° W 21:01:05 10° SW visible
06 Oct ? 20:18:22 10° NNW 20:23:10 39° W 20:28:00 10° SSW visible
08 Oct ? 20:50:26 10° NW 20:54:04 19° W 20:57:45 10° SW visible
09 Oct ? 20:14:47 10° N 20:19:38 42° W 20:24:33 10° SSW visible
11 Oct ? 20:46:43 10° NW 20:50:33 21° W 20:54:23 10° SW visible
